Skip Page Navigation
NASA JPL Caltech
NASA Logo - Jet Propulsion Laboratory + View the NASA Portal
+ Near-Earth Object (NEO) Program
Search JPL
JPL Home Earth Solar System Stars & Galaxies Technology
JPL Solar System Dynamics
BODIES ORBITS EPHEMERIDES TOOLS PHYSICAL DATA DISCOVERY FAQ SITE MAP
JPL Small-Body Database Browser
Search: [ help ]  
(1998 HD14)
Classification: Aten [NEO, PHA]          SPK-ID: 3013071
Ephemeris | Orbit Diagram | Orbital Elements | Physical Parameters | Close-Approach Data ]

[ hide orbit diagram ]
Orbit Diagram
Note: Make sure you have Java enabled on your browser to see the applet. This applet is provided as a 3D orbit visualization tool. The applet was implemented using 2-body methods, and hence should not be used for determining accurate long-term trajectories (over several years or decades) or planetary encounter circumstances. For accurate long-term ephemerides, please instead use our Horizons system.
Orbit Viewer

Additional Notes: the orbits shown in the applet are color coded. The planets are white lines, and the asteroid/comet is a blue line. The bright white line indicates the portion of the orbit that is above the ecliptic plane, and the darker portion is below the ecliptic plane. Likewise for the asteroid/comet orbit, the light blue indicates the portion above the ecliptic plane, and the dark blue the portion below the ecliptic plane.

Orbit Viewer applet originally written and kindly provided by Osamu Ajiki (AstroArts), and further modified by Ron Baalke (JPL).


Orbital Elements at Epoch 2456400.5 (2013-Apr-18.0) TDB
Reference: JPL 12 (heliocentric ecliptic J2000)
 Element Value Uncertainty (1-sigma)   Units 
e .3127553813896226 1.5138e-06  
a .9632909006494076 5.7611e-08 AU
q .6620164876276491 1.4971e-06 AU
i 7.809297731643288 2.1104e-05 deg
node 183.9196789228559 0.00016771 deg
peri 260.7955112573142 0.00012992 deg
M 35.42085979322022 0.000999 deg
tp 2456366.522516373448
(2013-Mar-15.02251637)
0.00095533 JED
period 345.3302426018432
0.95
3.098e-05
8.482e-08
d
yr
n 1.042480372664814 9.3521e-08 deg/d
Q 1.264565313671166 7.563e-08 AU
  Orbit Determination Parameters
   # obs. used (total)      79  
   data-arc span      1194 days (3.27 yr)  
   first obs. used      1998-04-25  
   last obs. used      2001-08-01  
   planetary ephem.      DE405  
   SB-pert. ephem.      SB405-CPV-2  
   condition code      2  
   fit RMS      .56051  
   data source      ORB  
   producer      Otto Matic  
   solution date      2011-Sep-14 19:33:51  

Additional Information
 Earth MOID = .033984 AU 
 T_jup = 6.211 
[ show covariance matrix ]

Ephemeris | Orbit Diagram | Orbital Elements | Physical Parameters | Close-Approach Data ]

Physical Parameter Table
Parameter Symbol Value Units Sigma Reference Notes
absolute magnitude H 20.922 mag .67497 12 autocmod 2.5a

[ show close-approach data ]
Ephemeris | Orbit Diagram | Orbital Elements | Physical Parameters | Close-Approach Data ]
ABOUT SSD CREDITS/AWARDS PRIVACY/COPYRIGHT GLOSSARY LINKS
FirstGov 2013-May-19 05:43 UT
(server date/time)  
NASA Home Page
Site Manager:   Donald K. Yeomans
Webmaster  Alan B. Chamberlin